Printer-friendly version

IAU Minor Planet Center

Minor Planet Center

P/2008 J3 (McNaught)

Orbital Elements

The following orbital elements are taken from MPC 66921:
P/2008 J3 (McNaught)
Epoch 2009 Mar. 30.0 TT = JDT 2454920.5
T 2009 Mar. 10.7325 TT                                  MPC
q   2.287087             (2000.0)            P               Q
n   0.1283590      Peri.    4.4118      +0.9704269      -0.2299584
a   3.892111       Node     9.8560      +0.2062720      +0.6319497
e   0.412379       Incl.   25.3997      +0.1253930      +0.7401072
P   7.68
From 183 observations 2008 May 10-2009 Aug. 28, mean residual 0".7.
Elements are also available for the current standard epoch:
P/2008 J3 (McNaught)
Epoch 2010 Jan. 4.0 TT = JDT 2455200.5
T 2009 Mar. 10.8239 TT                                  MPC
q   2.287364             (2000.0)            P               Q
n   0.1283064      Peri.    4.4463      +0.9703020      -0.2304933
a   3.893175       Node     9.8528      +0.2066024      +0.6318476
e   0.412468       Incl.   25.3990      +0.1258154      +0.7400280
P   7.68
An explanation of the orbital elements is available.

These orbital elements are also available in forms suitable for loading into a number of popular planetarium-type software programs.


Ephemeris

The following ephemeris is at intervals of five days. A daily ephemeris covering the same time interval is also available.

Personalized ephemerides for this (and other) objects may be generated using the Minor Planet & Comet Ephemeris Service.

Recent magnitude estimates for this comet (as reported to the ICQ) may be available.

Date    TT    R. A. (2000) Decl.     Delta      r     Elong.  Phase   m1    m2

WARNING!

This comet gets close to the sun during the period covered in the ephemeris below. Observers are warned to be wary of observing comets near the sun. NEVER point any kind of optical instrument at the sun--instant blindness will be the probable result.

2009 10 26 07 04.47 +52 17.6 2.310 2.789 108.5 19.8 18.3 2009 10 31 07 06.93 +53 09.0 2.277 2.807 112.2 19.1 18.3 2009 11 05 07 08.42 +54 00.6 2.246 2.826 116.0 18.4 18.3 2009 11 10 07 08.88 +54 51.9 2.219 2.844 119.8 17.6 18.3 2009 11 15 07 08.23 +55 42.3 2.195 2.863 123.6 16.7 18.3 2009 11 20 07 06.43 +56 30.7 2.174 2.882 127.3 15.8 18.3 2009 11 25 07 03.48 +57 16.2 2.158 2.901 130.8 14.9 18.3 2009 11 30 06 59.40 +57 57.7 2.146 2.920 134.1 14.0 18.3 2009 12 05 06 54.27 +58 33.9 2.139 2.939 137.1 13.2 18.3 2009 12 10 06 48.19 +59 03.9 2.138 2.958 139.7 12.4 18.4 2009 12 15 06 41.36 +59 26.6 2.142 2.977 141.7 11.8 18.4 2009 12 20 06 34.00 +59 41.2 2.152 2.997 143.0 11.4 18.4 2009 12 25 06 26.39 +59 47.3 2.168 3.016 143.5 11.2 18.5 2009 12 30 06 18.83 +59 44.7 2.190 3.036 143.3 11.2 18.5 2010 01 04 06 11.60 +59 33.9 2.217 3.055 142.3 11.4 18.6 2010 01 09 06 04.93 +59 15.5 2.251 3.075 140.6 11.7 18.6 2010 01 14 05 59.03 +58 50.3 2.290 3.094 138.3 12.2 18.7 2010 01 19 05 54.05 +58 19.4 2.335 3.114 135.5 12.8 18.8 2010 01 24 05 50.09 +57 43.9 2.385 3.134 132.4 13.4 18.8 2010 01 29 05 47.18 +57 04.9 2.440 3.153 129.0 14.1 18.9 2010 02 03 05 45.32 +56 23.4 2.499 3.173 125.4 14.7 19.0 2010 02 08 05 44.46 +55 40.4 2.562 3.193 121.7 15.2 19.1 2010 02 13 05 44.56 +54 56.5 2.629 3.213 118.0 15.8 19.2 2010 02 18 05 45.56 +54 12.4 2.699 3.232 114.2 16.2 19.3 2010 02 23 05 47.38 +53 28.5 2.773 3.252 110.4 16.6 19.3 2010 02 28 05 49.95 +52 45.2 2.848 3.272 106.6 16.9 19.4 2010 03 05 05 53.18 +52 02.7 2.926 3.291 102.8 17.1 19.5 2010 03 10 05 57.02 +51 21.1 3.006 3.311 99.1 17.2 19.6 2010 03 15 06 01.38 +50 40.5 3.086 3.331 95.4 17.3 19.7 2010 03 20 06 06.23 +50 00.8 3.168 3.351 91.8 17.3 19.8 2010 03 25 06 11.49 +49 22.2 3.251 3.370 88.2 17.2 19.8 2010 03 30 06 17.12 +48 44.6 3.334 3.390 84.7 17.1 19.9 2010 04 04 06 23.07 +48 07.7 3.417 3.409 81.2 16.8 20.0 2010 04 09 06 29.29 +47 31.7 3.499 3.429 77.7 16.6 20.1 2010 04 14 06 35.75 +46 56.2 3.581 3.448 74.3 16.3 20.1 2010 04 19 06 42.42 +46 21.4 3.662 3.468 71.0 15.9 20.2 2010 04 24 06 49.26 +45 47.0 3.743 3.487 67.7 15.5 20.3 2010 04 29 06 56.24 +45 13.0 3.821 3.507 64.5 15.0 20.4 2010 05 04 07 03.34 +44 39.3 3.898 3.526 61.3 14.5 20.4 2010 05 09 07 10.53 +44 05.8 3.974 3.545 58.1 14.0 20.5 2010 05 14 07 17.80 +43 32.4 4.047 3.565 55.0 13.4 20.6 2010 05 19 07 25.12 +42 59.2 4.119 3.584 51.9 12.8 20.6 2010 05 24 07 32.48 +42 26.0 4.187 3.603 48.9 12.2 20.7 2010 05 29 07 39.86 +41 52.8 4.254 3.622 45.9 11.6 20.7 2010 06 03 07 47.24 +41 19.6 4.317 3.641 43.0 10.9 20.8 2010 06 08 07 54.62 +40 46.4 4.378 3.660 40.1 10.3 20.8 2010 06 13 08 01.98 +40 13.1 4.436 3.679 37.2 9.6 20.9 2010 06 18 08 09.31 +39 39.8 4.490 3.698 34.5 9.0 20.9 2010 06 23 08 16.61 +39 06.5 4.541 3.717 31.8 8.3 21.0 2010 06 28 08 23.85 +38 33.1 4.589 3.735 29.2 7.6 21.0 2010 07 03 08 31.04 +37 59.7 4.633 3.754 26.8 7.0 21.1 2010 07 08 08 38.17 +37 26.4 4.674 3.772 24.5 6.4 21.1 2010 07 13 08 45.24 +36 53.1 4.711 3.791 22.4 5.9 21.2 2010 07 18 08 52.23 +36 20.0 4.744 3.809 20.6 5.4 21.2 2010 07 23 08 59.13 +35 47.0 4.773 3.828 19.2 5.0 21.2 2010 07 28 09 05.95 +35 14.2 4.797 3.846 18.2 4.7 21.3 2010 08 02 09 12.68 +34 41.7 4.818 3.864 17.7 4.6 21.3 2010 08 07 09 19.31 +34 09.4 4.835 3.882 17.8 4.6 21.3 2010 08 12 09 25.84 +33 37.6 4.848 3.900 18.5 4.7 21.3 2010 08 17 09 32.26 +33 06.3 4.856 3.918 19.7 5.0 21.4 2010 08 22 09 38.57 +32 35.5 4.860 3.936 21.4 5.4 21.4 2010 08 27 09 44.76 +32 05.3 4.860 3.954 23.5 5.8 21.4 2010 09 01 09 50.82 +31 35.8 4.856 3.971 25.8 6.4 21.4 2010 09 06 09 56.76 +31 07.1 4.847 3.989 28.4 6.9 21.4 2010 09 11 10 02.57 +30 39.3 4.834 4.006 31.1 7.5 21.4 2010 09 16 10 08.23 +30 12.5 4.817 4.024 34.1 8.0 21.5 2010 09 21 10 13.73 +29 46.8 4.796 4.041 37.1 8.6 21.5 2010 09 26 10 19.08 +29 22.3 4.771 4.058 40.3 9.2 21.5 2010 10 01 10 24.27 +28 59.1 4.742 4.075 43.6 9.8 21.5 2010 10 06 10 29.28 +28 37.2 4.709 4.092 47.0 10.3 21.5 2010 10 11 10 34.10 +28 17.0 4.672 4.109 50.4 10.8 21.5 2010 10 16 10 38.72 +27 58.4 4.632 4.126 54.0 11.3 21.5 2010 10 21 10 43.13 +27 41.5 4.589 4.143 57.7 11.7 21.5 2010 10 26 10 47.32 +27 26.5 4.543 4.159 61.4 12.1 21.5 2010 10 31 10 51.28 +27 13.5 4.494 4.176 65.2 12.5 21.5 2010 11 05 10 54.97 +27 02.6 4.442 4.193 69.1 12.8 21.5 2010 11 10 10 58.40 +26 53.9 4.389 4.209 73.1 13.0 21.5 2010 11 15 11 01.54 +26 47.5 4.333 4.225 77.2 13.2 21.4 2010 11 20 11 04.38 +26 43.5 4.276 4.241 81.3 13.3 21.4 2010 11 25 11 06.89 +26 41.9 4.218 4.257 85.6 13.4 21.4 2010 11 30 11 09.05 +26 42.8 4.159 4.273 89.9 13.3 21.4

Valid HTML 4.01!